This is the latest recevied weather packets stored in our database for station/object CE1RLP-31. If no packets are shown the sender has not sent any weather packets the latest 10 day(s).
| Time | Temp. | Humidity | Pressure | Rain* | Wind** | Luminosity | Snow |
|---|---|---|---|---|---|---|---|
| 1777655254 | 16.67° C | 7% | 1099.9 hPa | - | - | - | - |
| 1777654354 | 16.67° C | 7% | 1100.1 hPa | - | - | - | - |
| 1777653454 | 16.67° C | 7% | 1100.1 hPa | - | - | - | - |
| 1777652554 | 16.11° C | 7% | 1100.2 hPa | - | - | - | - |
| 1777651654 | 15° C | 7% | 1100.2 hPa | - | - | - | - |
| 1777650755 | 14.44° C | 7% | 1100.3 hPa | - | - | - | - |
| 1777649855 | 13.89° C | 7% | 1100.4 hPa | - | - | - | - |
| 1777648955 | 13.33° C | 7% | 1100.5 hPa | - | - | - | - |
| 1777648055 | 12.78° C | 8% | 1100.4 hPa | - | - | - | - |
| 1777647155 | 12.22° C | 7% | 1100.4 hPa | - | - | - | - |
| 1777646255 | 11.67° C | 7% | 1100.6 hPa | - | - | - | - |
| 1777645355 | 11.11° C | 7% | 1100.6 hPa | - | - | - | - |
| 1777644455 | 10.56° C | 7% | 1100.5 hPa | - | - | - | - |
| 1777643555 | 10.56° C | 7% | 1100.5 hPa | - | - | - | - |
| 1777642654 | 10° C | 7% | 1100.3 hPa | - | - | - | - |
| 1777641754 | 9.44° C | 7% | 1100.1 hPa | - | - | - | - |
| 1777640854 | 9.44° C | 7% | 1100 hPa | - | - | - | - |
| 1777639954 | 8.33° C | 7% | 1099.7 hPa | - | - | - | - |
| 1777639054 | 8.33° C | 7% | 1099.6 hPa | - | - | - | - |
| 1777638154 | 7.78° C | 8% | 1099.6 hPa | - | - | - | - |
| 1777637254 | 7.22° C | 8% | 1099.5 hPa | - | - | - | - |
| 1777636354 | 6.67° C | 9% | 1099.3 hPa | - | - | - | - |
| 1777635454 | 6.11° C | 9% | 1099.3 hPa | - | - | - | - |
| 1777634554 | 6.11° C | 9% | 1099.2 hPa | - | - | - | - |
| 1777633654 | 5.56° C | 9% | 1099.1 hPa | - | - | - | - |
* Rain since midnight (hover to see other rain measurements)
** Current wind speed in m/s (hover to see current wind gust speed)